Location: Unspecified
(51.5147°N, 7.4673°E)
Time: 22:13:24
(UTC+01:00)

A-11 Canister half - All Passes

Search period start: 18 February 2026 00:00
Search period end: 28 February 2026 00:00
Orbit: 1525 x 1682 km, 47.3° (Epoch: 18 February)

Date Brightness Start Highest point End Pass type
(mag) Time Alt. Az. Time Alt. Az. Time Alt. Az.
18 Feb - 00:44:01 10° W 00:49:11 16° SW 00:54:25 10° SSW visible
18 Feb - 16:04:11 10° SSW 16:12:04 32° SE 16:19:52 10° E daylight
18 Feb - 18:06:40 10° WSW 18:15:48 60° SSE 18:24:52 10° E visible
18 Feb - 20:11:02 10° W 20:20:14 68° S 20:29:29 10° ESE visible
18 Feb - 22:15:45 10° W 22:24:23 45° SSW 22:33:08 10° SE visible
19 Feb - 00:21:58 10° W 00:27:27 17° SW 00:33:00 10° SSW visible
19 Feb - 15:42:33 10° SSW 15:50:19 30° SE 15:58:00 10° E daylight
19 Feb - 17:44:53 10° WSW 17:53:59 59° SSE 18:03:03 10° E daylight
19 Feb - 19:49:12 10° W 19:58:25 68° S 20:07:40 10° ESE visible
19 Feb - 21:53:55 10° W 22:02:36 46° SSW 22:11:23 10° SE visible
19 Feb - 23:59:58 10° W 00:05:44 18° SW 00:11:34 10° S visible
20 Feb - 15:20:54 10° SSW 15:28:34 29° SE 15:36:08 10° E daylight
20 Feb - 17:23:06 10° SW 17:32:11 58° SSE 17:41:13 10° E daylight
20 Feb - 19:27:23 10° W 19:36:36 69° S 19:45:51 10° ESE visible
20 Feb - 21:32:05 10° W 21:40:49 48° SSW 21:49:38 10° SE visible
20 Feb - 23:37:59 10° W 23:44:00 19° SW 23:50:05 10° S visible
21 Feb - 14:59:17 10° S 15:06:49 28° SE 15:14:15 10° E daylight
21 Feb - 17:01:19 10° SW 17:10:24 57° SSE 17:19:24 10° E daylight
21 Feb - 19:05:33 10° W 19:14:48 69° S 19:24:01 10° ESE visible
21 Feb - 21:10:16 10° W 21:19:02 49° SSW 21:27:54 10° SE visible
21 Feb - 23:16:01 10° W 23:22:17 20° SW 23:28:36 10° S visible
22 Feb - 14:37:40 10° S 14:45:04 27° SE 14:52:21 10° E daylight
22 Feb - 16:39:31 10° SW 16:48:36 56° SSE 16:57:35 10° E daylight
22 Feb - 18:43:44 10° W 18:52:59 69° S 19:02:12 10° ESE visible
22 Feb - 20:48:26 10° W 20:57:15 50° SSW 21:06:08 10° SE visible
22 Feb - 22:54:04 10° W 23:00:32 22° SW 23:07:05 10° S visible
23 Feb - 14:16:04 10° S 14:23:19 25° SE 14:30:28 10° E daylight
23 Feb - 16:17:44 10° SW 16:26:48 55° SSE 16:35:45 10° E daylight
23 Feb - 18:21:54 10° W 18:31:10 69° S 18:40:23 10° E visible
23 Feb - 20:26:35 10° W 20:35:28 52° SSW 20:44:22 10° SE visible
23 Feb - 22:32:08 10° W 22:38:48 23° SW 22:45:32 10° S visible
24 Feb - 13:54:29 10° S 14:01:34 24° SE 14:08:33 10° E daylight
24 Feb - 15:55:58 10° SW 16:05:01 53° SSE 16:13:55 10° E daylight
24 Feb - 18:00:04 10° W 18:09:21 70° S 18:18:34 10° E daylight
24 Feb - 20:04:46 10° W 20:13:41 53° SSW 20:22:37 10° SE visible
24 Feb - 22:10:12 10° W 22:17:04 24° SW 22:24:00 10° S visible
25 Feb - 13:32:55 10° S 13:39:50 23° SE 13:46:38 10° E daylight
25 Feb - 15:34:11 10° SW 15:43:13 52° SSE 15:52:06 10° E daylight
25 Feb - 17:38:14 10° W 17:47:32 70° S 17:56:45 10° E daylight
25 Feb - 19:42:56 10° W 19:51:53 54° SSW 20:00:51 10° SE visible
25 Feb - 21:48:17 10° W 21:55:20 25° SW 22:02:25 10° S visible
26 Feb - 13:11:21 10° S 13:18:05 22° SE 13:24:43 10° E daylight
26 Feb - 15:12:24 10° SW 15:21:26 51° SSE 15:30:17 10° E daylight
26 Feb - 17:16:24 10° WSW 17:25:44 69° S 17:34:56 10° E daylight
26 Feb - 19:21:06 10° W 19:30:06 55° SSW 19:39:04 10° SE visible
26 Feb - 21:26:23 10° W 21:33:35 26° SW 21:40:51 10° S visible
27 Feb - 12:49:49 10° S 12:56:21 21° SE 13:02:46 10° E daylight
27 Feb - 14:50:38 10° SW 14:59:38 49° SSE 15:08:27 10° E daylight
27 Feb - 16:54:34 10° WSW 17:03:54 69° S 17:13:07 10° E daylight
27 Feb - 18:59:16 10° W 19:08:18 57° SSW 19:17:18 10° SE visible
27 Feb - 21:04:29 10° W 21:11:51 27° SW 21:19:15 10° S visible
